Time,TemperatureF,DewpointF,PressureIn,WindDirection,WindDirectionDegrees,WindSpeedMPH,WindSpeedGustMPH,Humidity,HourlyPrecipIn,Conditions,Clouds,dailyrainin,SolarRadiationWatts/m^2,SoftwareType,DateUTC
2013-06-28 00:02:00,82.0,77.7,29.86,NNW,336,2.0,6.0,87,0.00,,,0.06,0,Wunderground v.1.15,2013-06-28 04:02:00,
2013-06-28 00:04:00,81.9,77.6,29.86,NE,34,3.0,6.0,87,0.00,,,0.06,0,Wunderground v.1.15,2013-06-28 04:04:00,
2013-06-28 00:08:00,82.0,77.7,29.86,North,355,3.0,8.0,87,0.00,,,0.06,0,Wunderground v.1.15,2013-06-28 04:08:00,
2013-06-28 00:09:00,82.0,77.7,29.86,NNW,329,8.0,8.0,87,0.00,,,0.06,0,Wunderground v.1.15,2013-06-28 04:09:00,
2013-06-28 00:10:00,81.9,77.6,29.85,NNW,334,7.0,7.0,87,0.00,,,0.06,0,Wunderground v.1.15,2013-06-28 04:10:00,
2013-06-28 00:16:00,82.1,77.8,29.86,North,349,3.0,7.0,87,0.00,,,0.06,0,Wunderground v.1.15,2013-06-28 04:16:00,
2013-06-28 00:22:00,82.1,77.8,29.86,NNW,345,0.0,5.0,87,0.00,,,0.06,0,Wunderground v.1.15,2013-06-28 04:22:00,
2013-06-28 00:28:00,82.0,77.7,29.86,NNW,348,3.0,6.0,87,0.00,,,0.06,0,Wunderground v.1.15,2013-06-28 04:28:00,
2013-06-28 00:34:00,82.1,77.8,29.86,NW,318,3.0,6.0,87,0.00,,,0.06,0,Wunderground v.1.15,2013-06-28 04:34:00,
2013-06-28 00:40:00,82.1,77.8,29.86,NNE,19,5.0,5.0,87,0.00,,,0.06,0,Wunderground v.1.15,2013-06-28 04:40:00,
2013-06-28 00:46:00,82.2,77.9,29.86,NW,306,5.0,8.0,87,0.00,,,0.06,0,Wunderground v.1.15,2013-06-28 04:46:00,
2013-06-28 00:52:00,82.1,77.8,29.85,NNE,26,2.0,6.0,87,0.00,,,0.06,0,Wunderground v.1.15,2013-06-28 04:52:00,
2013-06-28 00:57:00,82.0,78.1,29.85,WNW,296,4.0,6.0,88,0.00,,,0.06,0,Wunderground v.1.15,2013-06-28 04:57:00,
2013-06-28 01:03:00,82.1,78.2,29.84,North,355,3.0,4.0,88,0.00,,,0.06,0,Wunderground v.1.15,2013-06-28 05:03:00,
2013-06-28 01:09:00,82.1,78.5,29.84,NNW,340,2.0,5.0,89,0.00,,,0.06,0,Wunderground v.1.15,2013-06-28 05:09:00,
2013-06-28 01:14:00,82.0,78.4,29.84,NW,325,5.0,6.0,89,0.00,,,0.06,0,Wunderground v.1.15,2013-06-28 05:14:00,
2013-06-28 01:20:00,82.1,78.5,29.84,WNW,302,7.0,9.0,89,0.00,,,0.06,0,Wunderground v.1.15,2013-06-28 05:20:00,
2013-06-28 01:26:00,82.1,78.5,29.84,NNW,338,4.0,6.0,89,0.00,,,0.06,0,Wunderground v.1.15,2013-06-28 05:26:00,
2013-06-28 01:32:00,82.1,78.5,29.83,NNW,338,11.0,11.0,89,0.00,,,0.06,0,Wunderground v.1.15,2013-06-28 05:32:00,
2013-06-28 01:37:00,82.1,78.5,29.83,North,355,5.0,11.0,89,0.00,,,0.00,0,Wunderground v.1.15,2013-06-28 05:37:00,
2013-06-28 01:42:00,82.0,78.4,29.84,NNE,20,0.0,4.0,89,0.00,,,0.00,0,Wunderground v.1.15,2013-06-28 05:42:00,
2013-06-28 01:47:00,82.0,78.4,29.83,NE,53,2.0,8.0,89,0.00,,,0.00,0,Wunderground v.1.15,2013-06-28 05:47:00,
2013-06-28 01:53:00,82.0,78.4,29.84,NNW,348,4.0,6.0,89,0.00,,,0.00,0,Wunderground v.1.15,2013-06-28 05:53:00,
2013-06-28 01:59:00,82.0,78.4,29.84,North,9,1.0,6.0,89,0.00,,,0.00,0,Wunderground v.1.15,2013-06-28 05:59:00,
2013-06-28 02:04:00,82.0,78.4,29.84,NW,315,2.0,6.0,89,0.00,,,0.00,0,Wunderground v.1.15,2013-06-28 06:04:00,
2013-06-28 02:09:00,82.0,78.4,29.84,NNW,345,1.0,8.0,89,0.00,,,0.00,0,Wunderground v.1.15,2013-06-28 06:09:00,
2013-06-28 02:14:00,81.9,78.3,29.84,NNW,330,0.0,5.0,89,0.00,,,0.00,0,Wunderground v.1.15,2013-06-28 06:14:00,
2013-06-28 02:19:00,81.8,77.9,29.84,NNW,342,1.0,6.0,88,0.00,,,0.00,0,Wunderground v.1.15,2013-06-28 06:19:00,
2013-06-28 02:24:00,81.7,77.8,29.83,NNW,336,3.0,5.0,88,0.00,,,0.00,0,Wunderground v.1.15,2013-06-28 06:24:00,
2013-06-28 02:29:00,81.6,77.4,29.84,North,351,1.0,6.0,87,0.00,,,0.00,0,Wunderground v.1.15,2013-06-28 06:29:00,
2013-06-28 02:34:00,81.5,76.9,29.84,NW,323,1.0,7.0,86,0.00,,,0.00,0,Wunderground v.1.15,2013-06-28 06:34:00,
2013-06-28 02:39:00,81.5,76.6,29.84,NNW,340,3.0,9.0,85,0.00,,,0.00,0,Wunderground v.1.15,2013-06-28 06:39:00,
2013-06-28 02:44:00,81.5,76.2,29.84,North,355,1.0,6.0,84,0.00,,,0.00,0,Wunderground v.1.15,2013-06-28 06:44:00,
2013-06-28 02:49:00,81.5,75.8,29.83,WSW,246,3.0,9.0,83,0.00,,,0.00,0,Wunderground v.1.15,2013-06-28 06:49:00,
2013-06-28 02:54:00,81.4,75.7,29.83,NNW,333,3.0,8.0,83,0.00,,,0.00,0,Wunderground v.1.15,2013-06-28 06:54:00,
2013-06-28 02:59:00,81.4,75.7,29.83,North,351,6.0,10.0,83,0.00,,,0.00,0,Wunderground v.1.15,2013-06-28 06:59:00,
2013-06-28 03:04:00,81.2,75.5,29.83,NNW,333,3.0,7.0,83,0.00,,,0.00,0,Wunderground v.1.15,2013-06-28 07:04:00,
2013-06-28 03:09:00,81.1,75.4,29.83,NNW,342,2.0,8.0,83,0.00,,,0.00,0,Wunderground v.1.15,2013-06-28 07:09:00,
2013-06-28 03:14:00,80.9,75.2,29.83,WNW,300,2.0,8.0,83,0.00,,,0.00,0,Wunderground v.1.15,2013-06-28 07:14:00,
2013-06-28 03:19:00,80.9,75.2,29.83,NE,44,0.0,9.0,83,0.00,,,0.00,0,Wunderground v.1.15,2013-06-28 07:19:00,
2013-06-28 03:24:00,80.8,75.2,29.83,NNE,19,0.0,10.0,83,0.00,,,0.00,0,Wunderground v.1.15,2013-06-28 07:24:00,
2013-06-28 03:29:00,80.7,75.1,29.83,NNE,26,2.0,10.0,83,0.00,,,0.00,0,Wunderground v.1.15,2013-06-28 07:29:00,
2013-06-28 03:34:00,80.5,74.9,29.83,NE,46,2.0,9.0,83,0.00,,,0.00,0,Wunderground v.1.15,2013-06-28 07:34:00,
2013-06-28 03:39:00,80.4,74.8,29.82,NE,54,2.0,9.0,83,0.00,,,0.00,0,Wunderground v.1.15,2013-06-28 07:39:00,
2013-06-28 03:44:00,80.3,74.7,29.82,NNW,346,4.0,7.0,83,0.00,,,0.00,0,Wunderground v.1.15,2013-06-28 07:44:00,
2013-06-28 03:49:00,80.2,74.6,29.82,NNE,29,2.0,8.0,83,0.00,,,0.00,0,Wunderground v.1.15,2013-06-28 07:49:00,
2013-06-28 03:54:00,80.2,74.9,29.82,NNW,337,2.0,7.0,84,0.00,,,0.00,0,Wunderground v.1.15,2013-06-28 07:54:00,
2013-06-28 03:59:00,80.2,74.9,29.82,NNE,25,2.0,9.0,84,0.00,,,0.00,0,Wunderground v.1.15,2013-06-28 07:59:00,
2013-06-28 04:04:00,80.0,74.7,29.82,North,5,5.0,6.0,84,0.00,,,0.00,0,Wunderground v.1.15,2013-06-28 08:04:00,
2013-06-28 04:09:00,79.9,74.6,29.82,North,355,0.0,8.0,84,0.00,,,0.00,0,Wunderground v.1.15,2013-06-28 08:09:00,
2013-06-28 04:14:00,79.8,74.2,29.82,North,360,2.0,9.0,83,0.00,,,0.00,0,Wunderground v.1.15,2013-06-28 08:14:00,
2013-06-28 04:19:00,79.7,74.4,29.82,NW,325,3.0,9.0,84,0.00,,,0.00,0,Wunderground v.1.15,2013-06-28 08:19:00,
2013-06-28 04:24:00,79.7,74.1,29.82,North,351,6.0,7.0,83,0.00,,,0.00,0,Wunderground v.1.15,2013-06-28 08:24:00,
2013-06-28 04:29:00,79.7,74.4,29.81,NNW,329,1.0,7.0,84,0.00,,,0.00,0,Wunderground v.1.15,2013-06-28 08:29:00,
2013-06-28 04:34:00,79.6,74.3,29.81,North,5,2.0,10.0,84,0.00,,,0.00,0,Wunderground v.1.15,2013-06-28 08:34:00,
2013-06-28 04:39:00,79.5,74.2,29.81,North,5,1.0,10.0,84,0.00,,,0.00,0,Wunderground v.1.15,2013-06-28 08:39:00,
2013-06-28 04:44:00,79.4,74.1,29.81,NNE,25,2.0,12.0,84,0.00,,,0.00,0,Wunderground v.1.15,2013-06-28 08:44:00,
2013-06-28 04:50:00,79.4,74.1,29.81,NNW,344,3.0,4.0,84,0.00,,,0.00,0,Wunderground v.1.15,2013-06-28 08:50:00,
2013-06-28 04:55:00,79.4,74.1,29.80,NNE,14,2.0,14.0,84,0.00,,,0.00,0,Wunderground v.1.15,2013-06-28 08:55:00,
2013-06-28 05:02:00,79.3,74.4,29.80,NNW,345,3.0,8.0,85,0.00,,,0.00,0,Wunderground v.1.15,2013-06-28 09:02:00,
2013-06-28 05:07:00,79.3,74.4,29.80,NNW,335,3.0,8.0,85,0.00,,,0.00,0,Wunderground v.1.15,2013-06-28 09:07:00,
2013-06-28 05:12:00,79.3,74.4,29.80,NNW,343,2.0,5.0,85,0.00,,,0.00,0,Wunderground v.1.15,2013-06-28 09:12:00,
2013-06-28 05:17:00,79.3,74.4,29.80,NNW,344,8.0,8.0,85,0.00,,,0.00,0,Wunderground v.1.15,2013-06-28 09:17:00,
2013-06-28 05:22:00,79.3,74.4,29.80,ENE,59,4.0,9.0,85,0.00,,,0.00,0,Wunderground v.1.15,2013-06-28 09:22:00,
2013-06-28 05:27:00,79.3,74.4,29.79,NNW,338,4.0,9.0,85,0.00,,,0.00,0,Wunderground v.1.15,2013-06-28 09:27:00,
2013-06-28 05:32:00,79.3,74.4,29.79,NNW,334,4.0,8.0,85,0.00,,,0.00,0,Wunderground v.1.15,2013-06-28 09:32:00,
2013-06-28 05:37:00,79.3,74.4,29.80,NNW,338,6.0,10.0,85,0.00,,,0.00,0,Wunderground v.1.15,2013-06-28 09:37:00,
2013-06-28 05:42:00,79.3,74.4,29.79,WNW,288,1.0,7.0,85,0.00,,,0.00,0,Wunderground v.1.15,2013-06-28 09:42:00,
2013-06-28 05:47:00,79.2,74.3,29.79,NNW,341,2.0,9.0,85,0.00,,,0.00,0,Wunderground v.1.15,2013-06-28 09:47:00,
2013-06-28 05:52:00,79.2,74.3,29.79,ENE,65,1.0,7.0,85,0.00,,,0.00,0,Wunderground v.1.15,2013-06-28 09:52:00,
2013-06-28 05:57:00,79.1,74.2,29.79,NNW,346,2.0,7.0,85,0.00,,,0.00,0,Wunderground v.1.15,2013-06-28 09:57:00,
2013-06-28 06:03:00,79.0,74.1,29.79,NNE,26,3.0,6.0,85,0.00,,,0.00,0,Wunderground v.1.15,2013-06-28 10:03:00,
2013-06-28 06:08:00,79.0,74.5,29.79,North,351,2.0,9.0,86,0.00,,,0.00,0,Wunderground v.1.15,2013-06-28 10:08:00,
2013-06-28 06:13:00,79.0,74.5,29.80,NW,318,1.0,8.0,86,0.00,,,0.00,0,Wunderground v.1.15,2013-06-28 10:13:00,
2013-06-28 06:18:00,79.0,74.5,29.79,NNW,333,4.0,8.0,86,0.00,,,0.00,0,Wunderground v.1.15,2013-06-28 10:18:00,
2013-06-28 06:23:00,78.9,74.4,29.80,NNW,338,2.0,7.0,86,0.00,,,0.00,7,Wunderground v.1.15,2013-06-28 10:23:00,
2013-06-28 06:28:00,78.9,74.4,29.80,NNW,327,5.0,7.0,86,0.00,,,0.00,12,Wunderground v.1.15,2013-06-28 10:28:00,
2013-06-28 06:33:00,78.8,74.3,29.80,NW,319,4.0,7.0,86,0.00,,,0.00,16,Wunderground v.1.15,2013-06-28 10:33:00,
2013-06-28 06:38:00,78.8,74.3,29.80,NNE,28,1.0,11.0,86,0.00,,,0.00,19,Wunderground v.1.15,2013-06-28 10:38:00,
2013-06-28 06:43:00,78.8,74.3,29.80,NE,53,0.0,9.0,86,0.00,,,0.00,25,Wunderground v.1.15,2013-06-28 10:43:00,
2013-06-28 06:48:00,78.8,74.3,29.81,North,5,2.0,9.0,86,0.00,,,0.00,28,Wunderground v.1.15,2013-06-28 10:48:00,
2013-06-28 06:53:00,78.8,74.6,29.81,NE,44,2.0,8.0,87,0.00,,,0.00,33,Wunderground v.1.15,2013-06-28 10:53:00,
2013-06-28 06:58:00,78.7,74.5,29.81,NNW,333,6.0,8.0,87,0.00,,,0.00,42,Wunderground v.1.15,2013-06-28 10:58:00,
2013-06-28 07:03:00,78.7,74.5,29.81,NNW,334,4.0,9.0,87,0.00,,,0.00,47,Wunderground v.1.15,2013-06-28 11:03:00,
2013-06-28 07:08:00,78.8,74.6,29.81,WSW,252,5.0,9.0,87,0.00,,,0.00,54,Wunderground v.1.15,2013-06-28 11:08:00,
2013-06-28 07:13:00,78.8,74.6,29.81,NW,319,2.0,6.0,87,0.00,,,0.00,62,Wunderground v.1.15,2013-06-28 11:13:00,
2013-06-28 07:18:00,78.8,74.6,29.81,NNW,336,3.0,9.0,87,0.00,,,0.00,62,Wunderground v.1.15,2013-06-28 11:18:00,
2013-06-28 07:23:00,78.9,74.7,29.81,NW,317,0.0,8.0,87,0.00,,,0.00,67,Wunderground v.1.15,2013-06-28 11:23:00,
2013-06-28 07:28:00,78.9,74.7,29.81,NNW,334,3.0,12.0,87,0.00,,,0.00,69,Wunderground v.1.15,2013-06-28 11:28:00,
2013-06-28 07:33:00,79.0,74.8,29.81,North,5,3.0,6.0,87,0.00,,,0.00,69,Wunderground v.1.15,2013-06-28 11:33:00,
2013-06-28 07:38:00,79.1,74.9,29.81,North,5,2.0,9.0,87,0.00,,,0.00,72,Wunderground v.1.15,2013-06-28 11:38:00,
2013-06-28 07:43:00,79.1,74.9,29.81,NNW,334,3.0,7.0,87,0.00,,,0.00,72,Wunderground v.1.15,2013-06-28 11:43:00,
2013-06-28 07:48:00,79.2,75.0,29.81,NW,317,2.0,7.0,87,0.00,,,0.00,76,Wunderground v.1.15,2013-06-28 11:48:00,
2013-06-28 07:53:00,79.3,74.7,29.82,NNW,336,2.0,9.0,86,0.00,,,0.00,97,Wunderground v.1.15,2013-06-28 11:53:00,
2013-06-28 07:58:00,79.4,74.8,29.82,NW,324,8.0,9.0,86,0.00,,,0.00,90,Wunderground v.1.15,2013-06-28 11:58:00,
2013-06-28 08:03:00,79.5,74.6,29.82,WSW,242,3.0,10.0,85,0.00,,,0.00,93,Wunderground v.1.15,2013-06-28 12:03:00,
2013-06-28 08:08:00,79.5,74.6,29.82,NNW,339,0.0,12.0,85,0.00,,,0.00,91,Wunderground v.1.15,2013-06-28 12:08:00,
2013-06-28 08:13:00,79.6,75.0,29.82,NE,54,1.0,7.0,86,0.00,,,0.00,111,Wunderground v.1.15,2013-06-28 12:13:00,
2013-06-28 08:18:00,79.8,74.9,29.82,West,279,2.0,9.0,85,0.00,,,0.00,127,Wunderground v.1.15,2013-06-28 12:18:00,
2013-06-28 08:23:00,79.8,74.5,29.82,NNE,19,3.0,15.0,84,0.00,,,0.00,149,Wunderground v.1.15,2013-06-28 12:23:00,
2013-06-28 08:28:00,79.8,74.5,29.82,WSW,238,5.0,15.0,84,0.00,,,0.00,137,Wunderground v.1.15,2013-06-28 12:28:00,
2013-06-28 08:33:00,79.9,75.0,29.81,NW,317,2.0,7.0,85,0.00,,,0.00,114,Wunderground v.1.15,2013-06-28 12:33:00,
2013-06-28 08:38:00,80.1,74.8,29.81,WNW,300,1.0,8.0,84,0.00,,,0.00,304,Wunderground v.1.15,2013-06-28 12:38:00,
2013-06-28 08:43:00,80.3,75.0,29.81,NW,325,3.0,7.0,84,0.00,,,0.00,373,Wunderground v.1.15,2013-06-28 12:43:00,
2013-06-28 08:48:00,80.6,75.0,29.81,NNW,332,5.0,9.0,83,0.00,,,0.00,399,Wunderground v.1.15,2013-06-28 12:48:00,
2013-06-28 08:53:00,80.9,74.9,29.81,ENE,57,2.0,9.0,82,0.00,,,0.00,176,Wunderground v.1.15,2013-06-28 12:53:00,
2013-06-28 08:58:00,80.9,74.9,29.81,NNE,22,0.0,9.0,82,0.00,,,0.00,144,Wunderground v.1.15,2013-06-28 12:58:00,
2013-06-28 09:03:00,81.0,75.0,29.81,NNE,22,0.0,3.0,82,0.00,,,0.00,144,Wunderground v.1.15,2013-06-28 13:03:00,
2013-06-28 09:08:00,81.4,75.4,29.81,East,82,5.0,5.0,82,0.00,,,0.00,445,Wunderground v.1.15,2013-06-28 13:08:00,
2013-06-28 09:13:00,81.8,75.8,29.81,NE,46,3.0,4.0,82,0.00,,,0.00,482,Wunderground v.1.15,2013-06-28 13:13:00,
2013-06-28 09:18:00,81.9,75.1,29.81,North,355,1.0,8.0,80,0.00,,,0.00,380,Wunderground v.1.15,2013-06-28 13:18:00,
2013-06-28 09:23:00,81.7,74.9,29.81,NNE,20,3.0,9.0,80,0.00,,,0.00,459,Wunderground v.1.15,2013-06-28 13:23:00,
2013-06-28 09:28:00,81.7,75.3,29.81,NNE,20,2.0,9.0,81,0.00,,,0.00,494,Wunderground v.1.15,2013-06-28 13:28:00,
2013-06-28 09:33:00,81.8,75.0,29.81,NE,34,3.0,7.0,80,0.00,,,0.00,510,Wunderground v.1.15,2013-06-28 13:33:00,
2013-06-28 09:38:00,81.9,75.1,29.80,NNW,348,2.0,7.0,80,0.00,,,0.00,522,Wunderground v.1.15,2013-06-28 13:38:00,
2013-06-28 09:44:00,82.3,75.5,29.80,NW,311,6.0,6.0,80,0.00,,,0.00,548,Wunderground v.1.15,2013-06-28 13:44:00,
2013-06-28 09:49:00,82.7,75.9,29.80,NE,48,2.0,7.0,80,0.00,,,0.00,566,Wunderground v.1.15,2013-06-28 13:49:00,
2013-06-28 09:54:00,82.9,75.7,29.80,NW,322,3.0,4.0,79,0.00,,,0.00,573,Wunderground v.1.15,2013-06-28 13:54:00,
2013-06-28 09:59:00,83.1,75.5,29.80,NE,45,2.0,7.0,78,0.00,,,0.00,585,Wunderground v.1.15,2013-06-28 13:59:00,
2013-06-28 10:04:00,83.5,75.9,29.80,NNE,17,2.0,3.0,78,0.00,,,0.00,606,Wunderground v.1.15,2013-06-28 14:04:00,
2013-06-28 10:09:00,84.0,76.0,29.80,North,351,4.0,4.0,77,0.00,,,0.00,624,Wunderground v.1.15,2013-06-28 14:09:00,
2013-06-28 10:14:00,84.2,75.8,29.80,NE,38,2.0,5.0,76,0.00,,,0.00,640,Wunderground v.1.15,2013-06-28 14:14:00,
2013-06-28 10:19:00,84.5,76.5,29.80,NE,41,3.0,6.0,77,0.00,,,0.00,657,Wunderground v.1.15,2013-06-28 14:19:00,
2013-06-28 10:24:00,85.2,76.4,29.80,ENE,66,3.0,5.0,75,0.00,,,0.00,659,Wunderground v.1.15,2013-06-28 14:24:00,
2013-06-28 10:29:00,85.3,76.1,29.80,NE,52,2.0,8.0,74,0.00,,,0.00,686,Wunderground v.1.15,2013-06-28 14:29:00,
2013-06-28 10:34:00,85.5,76.3,29.79,NE,46,2.0,7.0,74,0.00,,,0.00,726,Wunderground v.1.15,2013-06-28 14:34:00,
2013-06-28 10:39:00,85.7,76.5,29.79,NE,48,1.0,7.0,74,0.00,,,0.00,777,Wunderground v.1.15,2013-06-28 14:39:00,
2013-06-28 10:44:00,85.8,76.5,29.80,ENE,58,2.0,3.0,74,0.00,,,0.00,404,Wunderground v.1.15,2013-06-28 14:44:00,
2013-06-28 10:49:00,85.7,76.9,29.80,NNW,346,1.0,5.0,75,0.00,,,0.00,374,Wunderground v.1.15,2013-06-28 14:49:00,
2013-06-28 10:54:00,85.9,76.6,29.80,ENE,69,5.0,6.0,74,0.00,,,0.00,696,Wunderground v.1.15,2013-06-28 14:54:00,
2013-06-28 10:59:00,86.0,76.7,29.80,ENE,63,2.0,6.0,74,0.00,,,0.00,318,Wunderground v.1.15,2013-06-28 14:59:00,
2013-06-28 11:04:00,86.1,76.8,29.80,NE,44,1.0,3.0,74,0.00,,,0.00,970,Wunderground v.1.15,2013-06-28 15:04:00,
2013-06-28 11:09:00,86.3,77.4,29.79,ENE,62,1.0,7.0,75,0.00,,,0.00,413,Wunderground v.1.15,2013-06-28 15:09:00,
2013-06-28 11:14:00,86.3,77.0,29.80,ENE,63,2.0,6.0,74,0.00,,,0.00,733,Wunderground v.1.15,2013-06-28 15:14:00,
2013-06-28 11:19:00,86.5,77.2,29.80,ENE,63,2.0,6.0,74,0.00,,,0.00,884,Wunderground v.1.15,2013-06-28 15:19:00,
2013-06-28 11:24:00,87.2,77.9,29.80,NE,54,1.0,5.0,74,0.00,,,0.00,888,Wunderground v.1.15,2013-06-28 15:24:00,
2013-06-28 11:29:00,87.3,77.6,29.80,NE,44,3.0,6.0,73,0.00,,,0.00,313,Wunderground v.1.15,2013-06-28 15:29:00,
2013-06-28 11:34:00,87.3,78.0,29.80,NE,53,1.0,4.0,74,0.00,,,0.00,918,Wunderground v.1.15,2013-06-28 15:34:00,
2013-06-28 11:40:00,87.7,78.0,29.80,NNW,332,2.0,2.0,73,0.00,,,0.00,881,Wunderground v.1.15,2013-06-28 15:40:00,
2013-06-28 11:45:00,87.8,77.2,29.80,NNW,342,3.0,10.0,71,0.00,,,0.00,963,Wunderground v.1.15,2013-06-28 15:45:00,
2013-06-28 11:50:00,88.0,77.4,29.80,ENE,57,1.0,3.0,71,0.00,,,0.00,976,Wunderground v.1.15,2013-06-28 15:50:00,
2013-06-28 11:55:00,88.4,78.2,29.80,North,9,0.0,5.0,72,0.00,,,0.00,759,Wunderground v.1.15,2013-06-28 15:55:00,
2013-06-28 12:00:00,88.0,77.8,29.79,NW,321,7.0,7.0,72,0.00,,,0.00,374,Wunderground v.1.15,2013-06-28 16:00:00,
2013-06-28 12:05:00,87.6,77.5,29.79,NNW,332,4.0,9.0,72,0.00,,,0.00,916,Wunderground v.1.15,2013-06-28 16:05:00,
2013-06-28 12:10:00,88.0,77.8,29.79,NE,53,1.0,4.0,72,0.00,,,0.00,946,Wunderground v.1.15,2013-06-28 16:10:00,
2013-06-28 12:15:00,88.4,77.8,29.79,ENE,74,1.0,4.0,71,0.00,,,0.00,1020,Wunderground v.1.15,2013-06-28 16:15:00,
2013-06-28 12:20:00,88.6,78.0,29.79,North,360,1.0,3.0,71,0.00,,,0.00,566,Wunderground v.1.15,2013-06-28 16:20:00,
2013-06-28 12:25:00,88.6,78.0,29.79,NW,317,2.0,9.0,71,0.00,,,0.00,1002,Wunderground v.1.15,2013-06-28 16:25:00,
2013-06-28 12:30:00,88.4,78.6,29.78,North,360,2.0,2.0,73,0.00,,,0.00,1076,Wunderground v.1.15,2013-06-28 16:30:00,
2013-06-28 12:35:00,88.7,78.1,29.78,NNW,340,2.0,6.0,71,0.00,,,0.00,991,Wunderground v.1.15,2013-06-28 16:35:00,
2013-06-28 12:40:00,89.2,78.6,29.78,NNE,19,2.0,4.0,71,0.00,,,0.00,981,Wunderground v.1.15,2013-06-28 16:40:00,
2013-06-28 12:45:00,89.3,78.7,29.78,NNW,336,2.0,7.0,71,0.00,,,0.00,963,Wunderground v.1.15,2013-06-28 16:45:00,
2013-06-28 12:50:00,89.6,78.5,29.78,North,10,2.0,3.0,70,0.00,,,0.00,940,Wunderground v.1.15,2013-06-28 16:50:00,
2013-06-28 12:55:00,89.5,78.4,29.78,NW,312,4.0,8.0,70,0.00,,,0.00,1007,Wunderground v.1.15,2013-06-28 16:55:00,
2013-06-28 13:00:00,89.4,79.2,29.77,NNW,340,3.0,3.0,72,0.00,,,0.00,1035,Wunderground v.1.15,2013-06-28 17:00:00,
2013-06-28 13:05:00,89.7,78.6,29.77,NW,320,4.0,7.0,70,0.00,,,0.00,1044,Wunderground v.1.15,2013-06-28 17:05:00,
2013-06-28 13:10:00,89.5,79.7,29.77,West,273,3.0,5.0,73,0.00,,,0.00,1109,Wunderground v.1.15,2013-06-28 17:10:00,
2013-06-28 13:15:00,89.3,80.3,29.77,WNW,297,9.0,10.0,75,0.00,,,0.00,1076,Wunderground v.1.15,2013-06-28 17:15:00,
2013-06-28 13:20:00,88.5,80.0,29.77,West,281,3.0,9.0,76,0.00,,,0.00,387,Wunderground v.1.15,2013-06-28 17:20:00,
2013-06-28 13:25:00,87.7,79.6,29.76,NW,315,2.0,9.0,77,0.00,,,0.00,274,Wunderground v.1.15,2013-06-28 17:25:00,
2013-06-28 13:30:00,88.0,79.9,29.76,NW,306,3.0,6.0,77,0.00,,,0.00,960,Wunderground v.1.15,2013-06-28 17:30:00,
2013-06-28 13:35:00,88.3,80.2,29.76,NW,304,4.0,10.0,77,0.00,,,0.00,547,Wunderground v.1.15,2013-06-28 17:35:00,
2013-06-28 13:40:00,88.3,79.8,29.76,WNW,296,6.0,9.0,76,0.00,,,0.00,986,Wunderground v.1.15,2013-06-28 17:40:00,
2013-06-28 13:45:00,88.3,80.2,29.76,WNW,302,5.0,13.0,77,0.00,,,0.00,1023,Wunderground v.1.15,2013-06-28 17:45:00,
2013-06-28 13:51:00,88.4,80.3,29.76,WNW,296,6.0,6.0,77,0.00,,,0.00,327,Wunderground v.1.15,2013-06-28 17:51:00,
2013-06-28 13:56:00,88.4,80.7,29.76,NW,311,4.0,9.0,78,0.00,,,0.00,872,Wunderground v.1.15,2013-06-28 17:56:00,
2013-06-28 14:02:00,88.6,80.1,29.75,NNW,339,10.0,10.0,76,0.00,,,0.00,898,Wunderground v.1.15,2013-06-28 18:02:00,
2013-06-28 14:07:00,88.2,79.7,29.76,NNW,339,6.0,16.0,76,0.00,,,0.00,877,Wunderground v.1.15,2013-06-28 18:07:00,
2013-06-28 14:12:00,88.2,80.1,29.76,NNW,338,8.0,10.0,77,0.00,,,0.00,856,Wunderground v.1.15,2013-06-28 18:12:00,
2013-06-28 14:17:00,88.0,79.9,29.75,NNE,32,3.0,12.0,77,0.00,,,0.00,884,Wunderground v.1.15,2013-06-28 18:17:00,
2013-06-28 14:22:00,88.0,79.9,29.75,West,265,6.0,12.0,77,0.00,,,0.00,877,Wunderground v.1.15,2013-06-28 18:22:00,
2013-06-28 14:27:00,88.1,80.0,29.75,North,355,6.0,14.0,77,0.00,,,0.00,856,Wunderground v.1.15,2013-06-28 18:27:00,
2013-06-28 14:32:00,88.0,79.5,29.75,NW,317,10.0,12.0,76,0.00,,,0.00,870,Wunderground v.1.15,2013-06-28 18:32:00,
2013-06-28 14:37:00,87.7,79.6,29.75,NW,319,4.0,13.0,77,0.00,,,0.00,891,Wunderground v.1.15,2013-06-28 18:37:00,
2013-06-28 14:42:00,87.6,79.9,29.75,WNW,296,5.0,13.0,78,0.00,,,0.00,891,Wunderground v.1.15,2013-06-28 18:42:00,
2013-06-28 14:47:00,87.5,80.2,29.75,NNE,32,3.0,13.0,79,0.00,,,0.00,761,Wunderground v.1.15,2013-06-28 18:47:00,
2013-06-28 14:52:00,87.7,80.0,29.75,NNW,340,6.0,9.0,78,0.00,,,0.00,819,Wunderground v.1.15,2013-06-28 18:52:00,
2013-06-28 14:57:00,88.1,80.4,29.75,NNW,340,9.0,10.0,78,0.00,,,0.00,786,Wunderground v.1.15,2013-06-28 18:57:00,
2013-06-28 15:02:00,88.1,80.0,29.75,North,350,5.0,10.0,77,0.00,,,0.00,752,Wunderground v.1.15,2013-06-28 19:02:00,
2013-06-28 15:07:00,88.2,79.7,29.74,West,277,7.0,10.0,76,0.00,,,0.00,745,Wunderground v.1.15,2013-06-28 19:07:00,
2013-06-28 15:12:00,87.9,79.8,29.74,NNW,331,6.0,12.0,77,0.00,,,0.00,663,Wunderground v.1.15,2013-06-28 19:12:00,
2013-06-28 15:17:00,87.9,79.8,29.74,NNW,346,14.0,14.0,77,0.00,,,0.00,680,Wunderground v.1.15,2013-06-28 19:17:00,
2013-06-28 15:22:00,87.6,79.9,29.74,North,9,4.0,11.0,78,0.00,,,0.00,967,Wunderground v.1.15,2013-06-28 19:22:00,
2013-06-28 15:27:00,87.8,79.7,29.74,NW,313,10.0,13.0,77,0.00,,,0.00,803,Wunderground v.1.15,2013-06-28 19:27:00,
2013-06-28 15:32:00,87.7,80.0,29.74,NW,324,5.0,9.0,78,0.00,,,0.00,851,Wunderground v.1.15,2013-06-28 19:32:00,
2013-06-28 15:37:00,87.8,80.1,29.75,WNW,289,9.0,13.0,78,0.00,,,0.00,819,Wunderground v.1.15,2013-06-28 19:37:00,
2013-06-28 15:42:00,87.8,80.5,29.74,NNW,331,12.0,12.0,79,0.00,,,0.00,747,Wunderground v.1.15,2013-06-28 19:42:00,
2013-06-28 15:48:00,87.4,80.1,29.74,North,360,10.0,14.0,79,0.00,,,0.00,775,Wunderground v.1.15,2013-06-28 19:48:00,
2013-06-28 15:53:00,87.5,80.2,29.74,NNW,348,9.0,12.0,79,0.00,,,0.00,819,Wunderground v.1.15,2013-06-28 19:53:00,
2013-06-28 15:58:00,88.0,80.3,29.74,WNW,285,7.0,12.0,78,0.00,,,0.00,895,Wunderground v.1.15,2013-06-28 19:58:00,
2013-06-28 16:03:00,88.2,80.1,29.74,SW,225,6.0,13.0,77,0.00,,,0.00,738,Wunderground v.1.15,2013-06-28 20:03:00,
2013-06-28 16:08:00,87.9,80.6,29.73,North,355,6.0,14.0,79,0.00,,,0.00,758,Wunderground v.1.15,2013-06-28 20:08:00,
2013-06-28 16:13:00,87.7,80.0,29.73,WNW,287,10.0,18.0,78,0.00,,,0.00,649,Wunderground v.1.15,2013-06-28 20:13:00,
2013-06-28 16:18:00,87.6,79.9,29.73,NW,323,5.0,18.0,78,0.00,,,0.00,659,Wunderground v.1.15,2013-06-28 20:18:00,
2013-06-28 16:23:00,87.8,79.7,29.72,NW,326,4.0,13.0,77,0.00,,,0.00,703,Wunderground v.1.15,2013-06-28 20:23:00,
2013-06-28 16:28:00,87.9,79.8,29.72,NNW,338,9.0,13.0,77,0.00,,,0.00,712,Wunderground v.1.15,2013-06-28 20:28:00,
2013-06-28 16:33:00,87.7,80.0,29.72,NNW,342,4.0,11.0,78,0.00,,,0.00,703,Wunderground v.1.15,2013-06-28 20:33:00,
2013-06-28 16:38:00,87.8,79.7,29.72,NNW,328,11.0,14.0,77,0.00,,,0.00,715,Wunderground v.1.15,2013-06-28 20:38:00,
2013-06-28 16:43:00,87.9,80.2,29.72,NW,326,5.0,10.0,78,0.00,,,0.00,533,Wunderground v.1.15,2013-06-28 20:43:00,
2013-06-28 16:48:00,87.9,80.2,29.72,North,355,9.0,13.0,78,0.00,,,0.00,545,Wunderground v.1.15,2013-06-28 20:48:00,
2013-06-28 16:53:00,87.6,79.9,29.72,West,279,4.0,14.0,78,0.00,,,0.00,570,Wunderground v.1.15,2013-06-28 20:53:00,
2013-06-28 16:58:00,87.6,79.9,29.72,North,5,5.0,14.0,78,0.00,,,0.00,483,Wunderground v.1.15,2013-06-28 20:58:00,
2013-06-28 17:03:00,87.4,80.1,29.72,NNW,330,6.0,9.0,79,0.00,,,0.00,578,Wunderground v.1.15,2013-06-28 21:03:00,
2013-06-28 17:08:00,87.4,80.1,29.72,NW,307,7.0,14.0,79,0.00,,,0.00,457,Wunderground v.1.15,2013-06-28 21:08:00,
2013-06-28 17:13:00,87.3,80.4,29.72,East,80,3.0,15.0,80,0.00,,,0.00,339,Wunderground v.1.15,2013-06-28 21:13:00,
2013-06-28 17:18:00,87.4,80.1,29.72,NW,320,5.0,15.0,79,0.00,,,0.00,543,Wunderground v.1.15,2013-06-28 21:18:00,
2013-06-28 17:23:00,87.3,80.4,29.72,NNW,344,3.0,8.0,80,0.00,,,0.00,445,Wunderground v.1.15,2013-06-28 21:23:00,
2013-06-28 17:28:00,87.1,80.2,29.71,NNW,343,7.0,12.0,80,0.00,,,0.00,441,Wunderground v.1.15,2013-06-28 21:28:00,
2013-06-28 17:33:00,86.9,80.0,29.71,NNE,13,6.0,12.0,80,0.00,,,0.00,244,Wunderground v.1.15,2013-06-28 21:33:00,
2013-06-28 17:38:00,86.8,80.3,29.71,NW,304,10.0,16.0,81,0.00,,,0.00,255,Wunderground v.1.15,2013-06-28 21:38:00,
2013-06-28 17:43:00,86.8,79.9,29.71,North,355,7.0,13.0,80,0.00,,,0.00,204,Wunderground v.1.15,2013-06-28 21:43:00,
2013-06-28 17:49:00,86.5,80.0,29.71,NW,322,10.0,13.0,81,0.00,,,0.00,267,Wunderground v.1.15,2013-06-28 21:49:00,
2013-06-28 17:54:00,86.4,79.9,29.70,North,9,10.0,16.0,81,0.00,,,0.00,258,Wunderground v.1.15,2013-06-28 21:54:00,
2013-06-28 17:59:00,86.1,78.8,29.70,NNW,342,5.0,16.0,79,0.00,,,0.00,230,Wunderground v.1.15,2013-06-28 21:59:00,
2013-06-28 18:04:00,86.2,78.9,29.70,WNW,290,4.0,13.0,79,0.00,,,0.00,207,Wunderground v.1.15,2013-06-28 22:04:00,
2013-06-28 18:09:00,86.1,78.4,29.70,NW,323,6.0,13.0,78,0.00,,,0.00,211,Wunderground v.1.15,2013-06-28 22:09:00,
2013-06-28 18:14:00,86.1,78.8,29.70,North,5,5.0,11.0,79,0.00,,,0.00,221,Wunderground v.1.15,2013-06-28 22:14:00,
2013-06-28 18:19:00,86.1,78.8,29.70,NW,305,8.0,11.0,79,0.00,,,0.00,134,Wunderground v.1.15,2013-06-28 22:19:00,
2013-06-28 18:24:00,85.9,78.6,29.70,NW,314,4.0,11.0,79,0.00,,,0.00,114,Wunderground v.1.15,2013-06-28 22:24:00,
2013-06-28 18:29:00,85.6,78.3,29.69,West,268,7.0,14.0,79,0.00,,,0.00,125,Wunderground v.1.15,2013-06-28 22:29:00,
2013-06-28 18:34:00,85.4,78.5,29.69,NW,320,5.0,15.0,80,0.00,,,0.00,142,Wunderground v.1.15,2013-06-28 22:34:00,
2013-06-28 18:39:00,85.7,78.8,29.69,NW,306,6.0,15.0,80,0.00,,,0.00,135,Wunderground v.1.15,2013-06-28 22:39:00,
2013-06-28 18:44:00,85.7,78.4,29.69,NNW,339,1.0,15.0,79,0.00,,,0.00,113,Wunderground v.1.15,2013-06-28 22:44:00,
2013-06-28 18:49:00,85.8,78.9,29.69,NNW,335,4.0,15.0,80,0.00,,,0.00,100,Wunderground v.1.15,2013-06-28 22:49:00,
2013-06-28 18:54:00,85.9,79.0,29.69,NNW,347,4.0,10.0,80,0.00,,,0.00,98,Wunderground v.1.15,2013-06-28 22:54:00,
2013-06-28 18:59:00,85.9,79.0,29.69,NNW,341,5.0,10.0,80,0.00,,,0.00,88,Wunderground v.1.15,2013-06-28 22:59:00,
2013-06-28 19:04:00,86.0,79.1,29.70,NNW,342,4.0,7.0,80,0.00,,,0.00,81,Wunderground v.1.15,2013-06-28 23:04:00,
2013-06-28 19:09:00,86.1,79.2,29.70,NNE,32,4.0,9.0,80,0.00,,,0.00,70,Wunderground v.1.15,2013-06-28 23:09:00,
2013-06-28 19:14:00,86.1,79.2,29.70,WNW,292,3.0,4.0,80,0.00,,,0.00,70,Wunderground v.1.15,2013-06-28 23:14:00,
2013-06-28 19:19:00,86.0,79.1,29.70,NNW,333,3.0,7.0,80,0.00,,,0.00,49,Wunderground v.1.15,2013-06-28 23:19:00,
2013-06-28 19:24:00,86.0,79.1,29.71,NNE,19,2.0,6.0,80,0.00,,,0.00,44,Wunderground v.1.15,2013-06-28 23:24:00,
2013-06-28 19:29:00,86.0,79.1,29.71,NW,312,4.0,9.0,80,0.00,,,0.00,39,Wunderground v.1.15,2013-06-28 23:29:00,
2013-06-28 19:34:00,86.0,79.1,29.71,North,5,2.0,9.0,80,0.00,,,0.00,37,Wunderground v.1.15,2013-06-28 23:34:00,
2013-06-28 19:39:00,86.0,78.7,29.71,NNW,329,3.0,10.0,79,0.00,,,0.00,33,Wunderground v.1.15,2013-06-28 23:39:00,
2013-06-28 19:44:00,86.1,78.8,29.71,NE,46,4.0,7.0,79,0.00,,,0.00,26,Wunderground v.1.15,2013-06-28 23:44:00,
2013-06-28 19:50:00,86.1,78.4,29.71,NNW,335,2.0,4.0,78,0.00,,,0.00,25,Wunderground v.1.15,2013-06-28 23:50:00,
2013-06-28 19:55:00,86.1,78.0,29.71,NW,317,6.0,7.0,77,0.00,,,0.00,16,Wunderground v.1.15,2013-06-28 23:55:00,
2013-06-28 20:00:00,85.9,77.5,29.71,North,5,3.0,4.0,76,0.00,,,0.00,12,Wunderground v.1.15,2013-06-29 00:00:00,
2013-06-28 20:05:00,85.8,77.4,29.71,North,5,0.0,7.0,76,0.00,,,0.00,11,Wunderground v.1.15,2013-06-29 00:05:00,
2013-06-28 20:10:00,85.6,76.8,29.72,NW,309,1.0,3.0,75,0.00,,,0.00,9,Wunderground v.1.15,2013-06-29 00:10:00,
2013-06-28 20:15:00,85.6,76.8,29.72,NW,319,3.0,8.0,75,0.00,,,0.00,7,Wunderground v.1.15,2013-06-29 00:15:00,
2013-06-28 20:20:00,85.5,76.7,29.72,North,355,4.0,4.0,75,0.00,,,0.00,5,Wunderground v.1.15,2013-06-29 00:20:00,
2013-06-28 20:25:00,85.3,76.5,29.72,NNW,329,3.0,6.0,75,0.00,,,0.00,0,Wunderground v.1.15,2013-06-29 00:25:00,
2013-06-28 20:30:00,85.3,76.5,29.72,NW,316,4.0,4.0,75,0.00,,,0.00,0,Wunderground v.1.15,2013-06-29 00:30:00,
2013-06-28 20:35:00,85.2,76.4,29.72,West,259,4.0,7.0,75,0.00,,,0.00,0,Wunderground v.1.15,2013-06-29 00:35:00,
2013-06-28 20:40:00,85.0,76.2,29.72,NW,317,5.0,5.0,75,0.00,,,0.00,0,Wunderground v.1.15,2013-06-29 00:40:00,
2013-06-28 20:45:00,84.8,76.0,29.72,NNW,344,3.0,5.0,75,0.00,,,0.00,0,Wunderground v.1.15,2013-06-29 00:45:00,
2013-06-28 20:50:00,84.7,75.9,29.72,NW,312,2.0,3.0,75,0.00,,,0.00,0,Wunderground v.1.15,2013-06-29 00:50:00,
2013-06-28 20:55:00,84.5,75.7,29.72,NNW,337,3.0,5.0,75,0.00,,,0.00,0,Wunderground v.1.15,2013-06-29 00:55:00,
2013-06-28 21:00:00,84.3,75.5,29.72,WNW,298,1.0,2.0,75,0.00,,,0.00,0,Wunderground v.1.15,2013-06-29 01:00:00,
2013-06-28 21:05:00,84.1,74.9,29.72,NNW,344,2.0,7.0,74,0.00,,,0.00,0,Wunderground v.1.15,2013-06-29 01:05:00,
2013-06-28 21:10:00,84.1,74.9,29.72,WNW,296,3.0,3.0,74,0.00,,,0.00,0,Wunderground v.1.15,2013-06-29 01:10:00,
2013-06-28 21:15:00,84.0,74.8,29.72,NE,49,2.0,7.0,74,0.00,,,0.00,0,Wunderground v.1.15,2013-06-29 01:15:00,
2013-06-28 21:20:00,83.8,74.6,29.72,NNE,22,1.0,4.0,74,0.00,,,0.00,0,Wunderground v.1.15,2013-06-29 01:20:00,
2013-06-28 21:25:00,83.7,74.9,29.72,North,355,2.0,7.0,75,0.00,,,0.00,0,Wunderground v.1.15,2013-06-29 01:25:00,
2013-06-28 21:30:00,83.6,74.8,29.72,NNW,328,2.0,3.0,75,0.00,,,0.00,0,Wunderground v.1.15,2013-06-29 01:30:00,
2013-06-28 21:35:00,83.4,75.0,29.72,NW,319,4.0,5.0,76,0.00,,,0.00,0,Wunderground v.1.15,2013-06-29 01:35:00,
2013-06-28 21:40:00,83.2,74.8,29.71,West,279,4.0,4.0,76,0.00,,,0.00,0,Wunderground v.1.15,2013-06-29 01:40:00,
2013-06-28 21:45:00,83.1,74.7,29.71,NNE,13,5.0,6.0,76,0.00,,,0.00,0,Wunderground v.1.15,2013-06-29 01:45:00,
2013-06-28 21:50:00,83.1,74.7,29.71,NNE,13,5.0,5.0,76,0.00,,,0.00,0,Wunderground v.1.15,2013-06-29 01:50:00,
2013-06-28 21:55:00,82.7,74.4,29.71,NNW,342,1.0,5.0,76,0.00,,,0.00,0,Wunderground v.1.15,2013-06-29 01:55:00,
2013-06-28 22:00:00,82.7,74.8,29.71,NNE,33,3.0,4.0,77,0.00,,,0.00,0,Wunderground v.1.15,2013-06-29 02:00:00,
2013-06-28 22:05:00,82.6,74.7,29.71,North,5,2.0,6.0,77,0.00,,,0.00,0,Wunderground v.1.15,2013-06-29 02:05:00,
2013-06-28 22:11:00,82.6,74.7,29.71,NNW,346,1.0,7.0,77,0.00,,,0.00,0,Wunderground v.1.15,2013-06-29 02:11:00,
2013-06-28 22:16:00,82.5,74.6,29.71,NNW,334,4.0,7.0,77,0.00,,,0.00,0,Wunderground v.1.15,2013-06-29 02:16:00,
2013-06-28 22:21:00,82.4,74.1,29.71,NNW,330,0.0,7.0,76,0.00,,,0.00,0,Wunderground v.1.15,2013-06-29 02:21:00,
2013-06-28 22:26:00,82.2,74.3,29.71,NNW,336,3.0,7.0,77,0.00,,,0.00,0,Wunderground v.1.15,2013-06-29 02:26:00,
2013-06-28 22:31:00,82.1,73.8,29.71,NNW,329,3.0,5.0,76,0.00,,,0.00,0,Wunderground v.1.15,2013-06-29 02:31:00,
2013-06-28 22:36:00,81.9,73.6,29.71,NNW,328,5.0,7.0,76,0.00,,,0.00,0,Wunderground v.1.15,2013-06-29 02:36:00,
2013-06-28 22:41:00,81.7,73.4,29.71,NNE,25,3.0,7.0,76,0.00,,,0.00,0,Wunderground v.1.15,2013-06-29 02:41:00,
2013-06-28 22:46:00,81.6,73.3,29.71,NNW,342,3.0,7.0,76,0.00,,,0.00,0,Wunderground v.1.15,2013-06-29 02:46:00,
2013-06-28 22:51:00,81.4,72.7,29.71,NNW,344,2.0,8.0,75,0.00,,,0.00,0,Wunderground v.1.15,2013-06-29 02:51:00,
2013-06-28 22:56:00,81.3,72.6,29.71,NW,317,3.0,8.0,75,0.00,,,0.00,0,Wunderground v.1.15,2013-06-29 02:56:00,
2013-06-28 23:02:00,81.1,72.4,29.71,North,355,0.0,4.0,75,0.00,,,0.00,0,Wunderground v.1.15,2013-06-29 03:02:00,
2013-06-28 23:07:00,81.0,72.3,29.71,NNW,347,1.0,6.0,75,0.00,,,0.00,0,Wunderground v.1.15,2013-06-29 03:07:00,
2013-06-28 23:12:00,80.8,72.5,29.71,North,350,1.0,6.0,76,0.00,,,0.00,0,Wunderground v.1.15,2013-06-29 03:12:00,
2013-06-28 23:17:00,80.7,72.4,29.70,NNE,22,1.0,6.0,76,0.00,,,0.00,0,Wunderground v.1.15,2013-06-29 03:17:00,
2013-06-28 23:22:00,80.6,72.7,29.70,NNW,343,2.0,6.0,77,0.00,,,0.00,0,Wunderground v.1.15,2013-06-29 03:22:00,
2013-06-28 23:27:00,80.5,72.6,29.71,NNW,328,2.0,6.0,77,0.00,,,0.00,0,Wunderground v.1.15,2013-06-29 03:27:00,
2013-06-28 23:32:00,80.5,72.6,29.71,NW,315,4.0,6.0,77,0.00,,,0.00,0,Wunderground v.1.15,2013-06-29 03:32:00,
2013-06-28 23:37:00,80.4,72.5,29.71,NNW,348,4.0,6.0,77,0.00,,,0.00,0,Wunderground v.1.15,2013-06-29 03:37:00,
2013-06-28 23:42:00,80.3,72.8,29.71,NNW,327,0.0,4.0,78,0.00,,,0.00,0,Wunderground v.1.15,2013-06-29 03:42:00,
2013-06-28 23:47:00,80.4,72.9,29.71,NNW,338,3.0,6.0,78,0.00,,,0.00,0,Wunderground v.1.15,2013-06-29 03:47:00,
2013-06-28 23:52:00,80.5,73.0,29.71,WNW,284,2.0,6.0,78,0.00,,,0.00,0,Wunderground v.1.15,2013-06-29 03:52:00,
2013-06-28 23:57:00,80.4,73.3,29.72,NNW,347,2.0,6.0,79,0.00,,,0.00,0,Wunderground v.1.15,2013-06-29 03:57:00,